COSMOS 1823

Satellite information

Favourite Embed

Satellite Type and Status

PAYLOADIN ORBIT

Key statistics

Satellite COSMOS 1823 at a glance.

Uptime

14131

Days in orbit

Revolutions

≈ 12.4

Per day

Orbit

LEO

Low Earth Orbit

Inclination

73.6

Latest

Satellite identification and parameters

Extended collection of information and parameters for COSMOS 1823.

Object identification

Identified? True

Debris? False

Object name: COSMOS 1823

International designator: 1987-020A

Object number (NORAD): 17535

Object ID (CCSDS): 17535

Country: COMMONWEALTH OF INDEPENDENT STATES (CIS)

Current information (Y/N): Y

RCS size: LARGE

Orbital parameters

Period: 116.001 minutes

Inclination: 73.6049 deg

SMA: 7878.926 km

Apoapsis: 1523.574 km

Periapsis: 1478.007 km

RAAN: 354.9291 deg

Eccentricy: 0.00289167

Argument of periapsis: 221.6798 deg

Mean anomaly: 307.691 deg

Mean motion: 12.41372895 rev/day

Mean motion (dot): 0.00000001 rev/day2

B* drag term: 0.00013239117 1/REarth

Two-line elements (TLE)

Creation date: Oct. 28, 2025, 2:18 a.m.

Reference frame: TEME

Reference center: EARTH

Epoch: Oct. 27, 2025, 3:30 p.m. UTC

TLE line 0: 0 COSMOS 1823

TLE line 1: 1 17535U 87020A 25300.64586448 .00000001 00000-0 13239-3 0 9995

TLE line 2: 2 17535 73.6049 354.9291 0028917 221.6798 307.6910 12.41372895753000

Live tracking on map

Real-time ground track for satellite COSMOS 1823.

In-orbit conjunctions

There are no conjunctions computed for COSMOS 1823, at the moment. Check back to stay up to date, as we update our databases every day.

Go to all conjunctions

Associated space launch

A satellite for the GEO-IK geodetic system

COSMOS 1823 was lifted into orbit during the mission ‘Tsiklon-3 | Geo-IK 9’, on board a Tsiklon-3 space rocket.

The launch took place on Feb. 20, 1987, 4:43 a.m. from 32/2.

For more information about the launch, click the button.

Launch to space Tsiklon-3 | Geo-IK 9
Tsiklon-3 | Geo-IK 9

Agency: N/A

Status: Launch Successful

Launch date: Feb. 20, 1987, 4:43 a.m. UTC

Rocket: Tsiklon-3

Launch pad: 32/2

Location: Plesetsk Cosmodrome, Russian Federation

...

Latest news about this satellite

There are no fresh news available about this satellite. Check back as we update our databases every day.


Newsletter sign-up

Weekly statistics, charts and insights to help you stay on top of the space industry.